Bismarck, ND

3:47 AM CST on December 06, 2016 (GMT -0600)
Bismarck Municipal

Weather History for KBIS - November, 2012

Change the Weather History Date:

Friday, November 2, 2012

  Actual Average Record
Temperature  
Mean Temperature 31 °F 37 °F  
Max Temperature 35 °F 48 °F 75 °F (1978)
Min Temperature 27 °F 25 °F -5 °F (1951)
Degree Days  
Heating Degree Days 34 28  
Month to date heating degree days 65 56  
Since 1 July heating degree days 980 968  
Cooling Degree Days 0 0  
Month to date cooling degree days 0 0  
Year to date cooling degree days 599 520  
Moisture  
Dew Point 26 °F    
Average Humidity 86    
Maximum Humidity 96    
Minimum Humidity 75    
Precipitation  
Precipitation 0.09 in 0.03 in 0.73 in (1896)
Month to date precipitation 0.09 0.06  
Year to date precipitation 13.29 16.71  
Snow  
Snow 0.40 in 0.20 in 7.00 in (1896)
Month to date snowfall 0.4 0.4  
Since 1 July snowfall 0.4 2.8  
Since 1 September snowfall 0.4 2.8  
Snow Depth T in    
Sea Level Pressure  
Sea Level Pressure 30.10 in    
Wind  
Wind Speed 6 mph (SE)    
Max Wind Speed 15 mph    
Max Gust Speed 18 mph    
Visibility 6 miles    
Events Snow    
T = Trace of Precipitation, MM = Missing Value Source: NWS Daily Summary

Daily Weather History Graph

Daily Weather History Graph

Search for Another Location

Airport or City:

Trip Planner

Search our weather history database for the weather conditions in past years. The results will help you decide how hot, cold, wet, or windy it might be!

Date:

Astronomy

Nov. 02, 2012 Rise Set
Actual Time 8:27 AM CDT 6:24 PM CDT
Civil Twilight 7:55 AM CDT 6:56 PM CDT
Nautical Twilight 7:19 AM CDT 7:32 PM CDT
Astronomical Twilight 6:44 AM CDT 8:07 PM CDT
Moon 9:06 PM CDT (11/2) 11:57 AM CDT (11/2)
Length of Visible Light 11h 01m
Length of Day
9h 57m
Waning Gibbous, 87% of the Moon is Illuminated
Nov 2
Waning Gibbous
Nov 6
Last Quarter
Nov 13
New
Nov 20
First Quarter
Nov 28
Full

Hourly Weather History & Observations

Time (CDT) Temp. Windchill Dew Point Humidity Pressure Visibility Wind Dir Wind Speed Gust Speed Precip Events Conditions
12:37 AM 28.4 °F 16.6 °F 21.2 °F 74% 30.04 in 9.0 mi East 16.1 mph - N/A   Mostly Cloudy
12:49 AM 26.6 °F 14.7 °F 21.2 °F 80% 30.05 in 9.0 mi ESE 15.0 mph - N/A   Scattered Clouds
12:52 AM 27.0 °F 15.6 °F 21.9 °F 81% 30.12 in 9.0 mi East 13.8 mph - N/A   Scattered Clouds
1:04 AM 26.6 °F 15.2 °F 21.2 °F 80% 30.05 in 10.0 mi East 13.8 mph - N/A   Mostly Cloudy
1:42 AM 26.6 °F 16.8 °F 21.2 °F 80% 30.06 in 10.0 mi ESE 10.4 mph - N/A   Overcast
1:52 AM 26.6 °F 16.2 °F 21.2 °F 80% 30.05 in 10.0 mi ESE 11.5 mph - N/A   Overcast
2:18 AM 26.6 °F 15.2 °F 21.2 °F 80% 30.06 in 10.0 mi ESE 13.8 mph - N/A   Scattered Clouds
2:52 AM 27.0 °F 17.3 °F 21.0 °F 78% 30.11 in 10.0 mi East 10.4 mph - N/A   Mostly Cloudy
3:52 AM 27.0 °F 18.0 °F 21.9 °F 81% 30.12 in 10.0 mi ESE 9.2 mph - N/A   Overcast
4:52 AM 27.0 °F 16.1 °F 21.9 °F 81% 30.10 in 10.0 mi ESE 12.7 mph - N/A   Partly Cloudy
5:52 AM 28.0 °F 20.0 °F 21.9 °F 78% 30.11 in 10.0 mi East 8.1 mph - N/A   Overcast
6:52 AM 28.0 °F 20.8 °F 21.9 °F 78% 30.13 in 10.0 mi ESE 6.9 mph - N/A   Overcast
7:52 AM 28.9 °F 20.4 °F 21.9 °F 75% 30.13 in 10.0 mi East 9.2 mph - N/A   Overcast
8:52 AM 28.9 °F 20.4 °F 21.9 °F 75% 30.14 in 10.0 mi ESE 9.2 mph - N/A   Overcast
9:52 AM 28.9 °F 19.8 °F 23.0 °F 78% 30.14 in 5.0 mi East 10.4 mph - 0.00 in Snow Light Snow
10:08 AM 28.4 °F 19.7 °F 23.0 °F 80% 30.07 in 2.0 mi ESE 9.2 mph - 0.01 in Snow Light Snow
10:17 AM 28.4 °F 19.1 °F 24.8 °F 86% 30.07 in 0.8 mi East 10.4 mph - 0.01 in Snow Light Snow
10:52 AM 28.0 °F 21.7 °F 26.1 °F 92% 30.15 in 1.2 mi ESE 5.8 mph - 0.03 in Snow Light Snow
10:59 AM 28.4 °F 23.3 °F 26.6 °F 93% 30.09 in 1.5 mi SE 4.6 mph - 0.00 in Snow Light Snow
11:05 AM 28.4 °F 22.2 °F 26.6 °F 93% 30.09 in 3.0 mi SE 5.8 mph - 0.00 in Snow Light Snow
11:49 AM 28.4 °F 22.2 °F 26.6 °F 93% 30.09 in 5.0 mi ESE 5.8 mph - 0.01 in Snow Light Snow
11:52 AM 28.9 °F 22.8 °F 26.1 °F 89% 30.16 in 5.0 mi SE 5.8 mph - 0.01 in Snow Light Snow
12:21 PM 30.2 °F 22.6 °F 26.6 °F 86% 30.08 in 2.0 mi ESE 8.1 mph - 0.00 in Snow Light Snow
12:52 PM 30.0 °F 21.7 °F 26.1 °F 85% 30.14 in 3.0 mi ESE 9.2 mph - 0.00 in Snow Light Snow
1:16 PM 30.2 °F 22.6 °F 26.6 °F 86% 30.07 in 3.0 mi SE 8.1 mph - 0.00 in   Overcast
1:24 PM 30.2 °F 22.6 °F 26.6 °F 86% 30.08 in 2.0 mi SE 8.1 mph - 0.00 in Snow Light Snow
1:37 PM 30.2 °F 23.4 °F 26.6 °F 86% 30.07 in 1.5 mi SE 6.9 mph - 0.01 in Snow Light Snow
1:52 PM 30.9 °F 24.3 °F 27.0 °F 85% 30.14 in 1.2 mi SSE 6.9 mph - 0.01 in Snow Light Snow
2:07 PM 30.2 °F 23.4 °F 28.4 °F 93% 30.07 in 2.5 mi SSE 6.9 mph - 0.01 in Snow Light Snow
2:25 PM 30.2 °F 23.4 °F 28.4 °F 93% 30.07 in 1.2 mi South 6.9 mph - 0.01 in Snow Light Snow
2:35 PM 30.2 °F 24.3 °F 28.4 °F 93% 30.06 in 1.0 mi SSE 5.8 mph - 0.01 in Snow Light Snow
2:43 PM 30.2 °F 23.4 °F 28.4 °F 93% 30.06 in 1.0 mi South 6.9 mph - 0.01 in Snow Light Snow
2:52 PM 30.9 °F 24.3 °F 28.0 °F 89% 30.13 in 1.0 mi South 6.9 mph - 0.02 in Snow Light Snow
3:09 PM 30.2 °F 24.3 °F 28.4 °F 93% 30.06 in 1.2 mi South 5.8 mph - 0.00 in Snow Light Snow
3:52 PM 32.0 °F 25.6 °F 28.9 °F 88% 30.12 in 1.8 mi SSE 6.9 mph - 0.02 in Snow Light Snow
3:57 PM 32.0 °F 24.8 °F 28.4 °F 87% 30.05 in 2.0 mi SSE 8.1 mph - 0.00 in Snow Light Snow
4:09 PM 32.0 °F 25.6 °F 28.4 °F 87% 30.05 in 4.0 mi SSE 6.9 mph - 0.00 in Snow Light Snow
4:52 PM 32.0 °F 25.6 °F 28.9 °F 88% 30.12 in 10.0 mi South 6.9 mph - 0.00 in   Overcast
5:52 PM 33.1 °F 27.7 °F 28.9 °F 85% 30.12 in 10.0 mi SSE 5.8 mph - N/A   Overcast
6:52 PM 33.1 °F - 30.0 °F 89% 30.13 in 10.0 mi Calm Calm - N/A   Overcast
7:52 PM 33.1 °F 30.0 °F 28.9 °F 85% 30.14 in 9.0 mi ESE 3.5 mph - N/A   Overcast
8:15 PM 32.0 °F 27.5 °F 30.2 °F 93% 30.08 in 5.0 mi ESE 4.6 mph - N/A   Overcast
8:52 PM 32.0 °F 27.5 °F 30.9 °F 96% 30.14 in 4.0 mi SE 4.6 mph - N/A   Overcast
9:52 PM 33.1 °F - 30.9 °F 92% 30.15 in 8.0 mi Calm Calm - N/A   Overcast
10:34 PM 33.8 °F 30.8 °F 30.2 °F 87% 30.09 in 8.0 mi South 3.5 mph - N/A   Overcast
10:52 PM 33.1 °F - 32.0 °F 96% 30.16 in 8.0 mi Calm Calm - N/A   Overcast
11:52 PM 33.8 °F - 32.0 °F 93% 30.10 in 9.0 mi Calm Calm - N/A   Overcast